Location: Les Salelles
(44.4192°N, 4.1044°E)
Time: 16:57:23
(UTC+00:00)

Cosmos 1844 - Pass Details

Date: 20 January 2021
Orbit: 821 x 869 km, 70.9° (Epoch: 25 February)

Event Time Altitude Azimuth Distance (km) Brightness Sun altitude
Rises 17:45:04 0° 180° (S) 3,366 7.0 -12.2°
Reaches altitude 10° 17:47:37 10° 172° (S) 2,443 6.2 -12.6°
Maximum altitude 17:52:45 38° 106° (ESE) 1,273 4.2 -13.5°
Enters shadow 17:56:49 16° 46° (NE) 2,103 5.3 -14.2°
